Location: Collinas
(39.6428°N, 8.8414°E)
Time: 06:50:56
(UTC+00:00)

Daily predictions for brighter satellites

Satellite Brightness Start Highest point End
(mag) Time Altitude Azimuth Time Altitude Azimuth Time Altitude Azimuth
Cosmos 1603 3.7 16:46:56 10° NNW 16:52:39 73° ENE 16:58:22 10° SSE
Cosmos 1892 Rocket 4.2 16:53:24 10° SSE 16:57:21 35° E 17:01:18 10° NNE
YAOGAN 1 4.3 16:55:26 10° E 16:57:29 13° ENE 16:59:34 10° NE
TELKOM 3 2.8 16:56:02 10° SW 16:58:17 80° SE 17:00:45 10° ENE
Cosmos 1606 Rocket 3.8 16:54:28 10° N 16:58:43 47° E 17:02:59 10° SSE
DELTA 2 R/B (1) 4.3 16:53:26 10° W 16:58:52 55° SSW 17:04:17 10° SE
FengYun 1-2 T 4.2 16:53:47 10° SSE 16:59:17 69° ENE 17:04:52 10° N
ATLAS 5 CENTAUR R/B 2.7 16:55:54 10° WSW 16:59:35 37° NW 17:03:41 10° NNE
H-2A R/B 2.2 16:55:53 10° NNE 17:00:21 82° WNW 17:04:41 10° SSW
NOAA 12 4.3 16:56:01 10° SSE 17:01:14 82° WSW 17:06:30 10° NNW
SL-14 R/B 3.7 16:59:00 10° SSW 17:02:49 67° W 17:06:43 10° N
RESURS DK-1 4.4 17:01:20 10° WSW 17:04:48 25° WNW 17:08:16 10° N
Abrixas rocket 4.0 17:03:48 10° W 17:06:06 26° SW 17:08:22 10° SSE
MOS 1 Rocket 3.8 17:05:54 10° NNE 17:09:45 31° E 17:13:34 10° SSE
ATLAS 3B R/B 3.2 17:03:32 10° NW 17:10:32 70° WSW 17:17:47 10° SSE
Cosmos 2228 2.9 17:06:27 10° N 17:10:43 74° E 17:14:59 10° SSE
BREEZE-M DEB (TANK) 2.6 17:08:14 10° WNW 17:11:03 57° SSW 17:14:45 10° SE
Meteor 2-5 Rocket 4.1 17:06:03 10° SSW 17:11:37 69° W 17:17:08 10° N
Cosmos 2142 Rocket 4.4 17:06:47 10° N 17:12:58 76° E 17:19:04 10° SSE
CZ-4C R/B 4.2 17:10:03 10° WNW 17:13:40 18° NNW 17:17:44 10° N
SJ 16-02 2.3 17:10:53 10° SSE 17:14:38 28° E 17:18:23 10° NE
SKYMED 2 3.7 17:11:29 10° NNE 17:15:44 52° E 17:19:58 10° S
Nadezhda 4 Rocket 4.4 17:10:10 10° SSE 17:15:54 39° E 17:21:35 10° NNE
Cosmos 1538 Rocket 4.4 17:12:21 10° N 17:17:12 39° ENE 17:22:01 10° SE
Cosmos 1777 Rocket 4.0 17:12:33 10° SSW 17:17:48 83° ESE 17:23:06 10° NNE
CZ-3B R/B 3.8 17:16:29 10° N 17:18:20 14° NE 17:20:09 12° ENE
Cosmos 2263 Rocket 3.5 17:14:38 10° SW 17:19:56 39° WNW 17:25:15 10° N
Cosmos 1455 3.2 17:24:58 10° NNE 17:28:07 24° ENE 17:31:15 10° SE
Cosmos 2058 Rocket 3.2 17:25:48 10° N 17:30:12 51° E 17:34:34 10° SSE
X-37B 0.6 17:28:08 10° WSW 17:31:18 72° SSE 17:33:14 21° ENE
Cosmos 1300 3.8 17:28:40 10° NNW 17:32:20 47° W 17:36:00 10° SSW
ARGOS 4.0 17:31:20 10° ESE 17:35:40 26° ENE 17:39:59 10° NNE
Cosmos 44 4.3 17:34:37 10° SSE 17:38:26 25° ESE 17:40:17 20° ENE
Okean 1-7 Rocket 3.6 17:34:20 10° S 17:38:48 69° E 17:43:21 10° NNE
Cosmos 1939 Rocket 3.4 17:38:36 10° S 17:42:42 65° W 17:46:47 10° NNW
Lacrosse 5 2.7 17:38:18 10° NNW 17:42:47 31° NE 17:45:00 22° ENE
ISS -3.7 17:39:50 10° WSW 17:43:12 74° NW 17:45:00 25° NE
Cosmos 1943 4.4 17:39:52 10° NW 17:45:14 45° WSW 17:50:34 10° S
Cosmos 1726 Rocket 4.0 17:41:22 10° NNW 17:45:41 63° W 17:50:01 10° S
ERS-2 2.0 17:42:41 10° NNE 17:46:20 73° ESE 17:49:56 10° S
COSMOS 2455 3.2 17:41:17 10° SW 17:47:16 66° WNW 17:53:18 10° NNE
EXPRESS MD2 4.2 17:40:33 10° NW 17:48:08 53° NNE 17:50:21 26° E
CZ-2C R/B 3.7 17:45:49 19° ENE 17:48:15 26° E 17:52:51 10° SSE
PSLV R/B 4.0 17:44:34 10° NNE 17:48:46 62° ESE 17:52:55 10° S
Cosmos 1626 Rocket 3.8 17:45:56 10° SSE 17:50:04 45° E 17:54:01 11° NNE
Cosmos 1844 3.7 17:46:33 10° S 17:52:06 65° ESE 17:57:10 13° NNE
Cosmos 2026 Rocket 4.5 17:47:37 10° SSE 17:53:01 35° E 17:58:29 10° NNE
IRS-1C Rocket 4.0 17:48:10 10° SSE 17:53:25 83° ENE 17:58:42 10° NNW
Cosmos 990 Rocket 4.5 17:49:10 10° SSE 17:53:55 37° ESE 17:56:17 24° NE
CZ-4 R/B 1.3 17:50:56 10° SSE 17:55:00 63° ENE 17:59:02 10° N
Feng Yun 1-1 Rocket 4.5 17:50:45 10° S 17:56:07 70° WSW 18:01:38 10° NNW
NOSS 2-1 (C) 3.7 17:57:32 10° S 18:00:29 32° SE 18:00:29 32° SE
COSMO-SKYMED 1 3.7 17:59:40 10° N 18:03:48 44° WNW 18:07:54 10° SW
NOSS 2-1 (D) 3.5 18:03:18 10° S 18:06:13 38° SE 18:06:13 38° SE
DMSP B5D1-3 4.4 18:02:01 10° NNE 18:07:05 64° ESE 18:12:07 10° S
Hubble Space Telescope 2.9 18:04:37 10° SSW 18:07:14 16° S 18:08:45 14° SSE
USA 267 3.6 18:04:12 27° ENE 18:07:27 46° SE 18:13:40 10° SSW
Okean-O 2.5 18:06:40 10° SSE 18:11:06 85° ENE 18:15:33 10° NNW
CZ-2C R/B 3.6 18:07:24 10° S 18:12:33 62° W 18:18:01 10° NNW
CZ-4B R/B 4.0 18:11:15 10° NNW 18:13:46 20° WNW 18:16:14 10° WSW
Cosmos 1844 Rocket 3.0 18:08:31 10° SSW 18:14:09 67° WNW 18:19:24 12° NNE
H-2A R/B 1.8 18:10:04 10° SSE 18:15:00 81° ENE 18:20:06 10° N
Meteor 1-21 Rocket 4.2 18:11:02 10° S 18:16:33 85° W 18:22:07 10° N
Aureole 2 Rocket 4.3 18:15:09 10° WSW 18:17:41 25° WNW 18:19:29 15° NNW
Cosmos 2195 Rocket 4.4 18:12:15 10° S 18:18:29 68° E 18:24:47 10° NNE
Cosmos 923 Rocket 4.0 18:13:41 10° NNW 18:18:59 62° ENE 18:23:16 15° SSE
Cosmos 1689 Rocket 3.2 18:20:01 34° NW 18:20:40 40° WNW 18:23:21 10° SW
Cosmos 1898 Rocket 3.5 18:17:12 10° S 18:22:23 59° ESE 18:23:41 45° NE
Cosmos 2278 Rocket 3.9 18:18:42 10° SSE 18:20:26 17° SE 18:20:26 17° SE
Cosmos 158 Rocket 3.9 18:19:02 10° NNW 18:24:24 76° ENE 18:29:47 10° SSE
Meteor 2-8 Rocket 4.4 18:18:54 10° N 18:24:55 58° E 18:30:55 10° SSE
Cosmos 1680 Rocket 3.5 18:21:14 10° N 18:26:22 53° ENE 18:26:36 53° ENE
Cosmos 1627 Rocket 4.3 18:22:15 10° S 18:28:21 73° E 18:34:35 10° N
Cosmos 2098 Rocket 4.3 18:22:50 10° SSE 18:29:34 59° E 18:36:51 10° NNE
Cosmos 1602 Rocket 3.4 18:25:48 10° S 18:30:06 86° W 18:31:34 42° N
Cosmos 1818 4.5 18:26:16 10° SW 18:31:28 46° NW 18:34:52 21° N
YAOGAN 1 3.2 18:28:51 10° S 18:33:05 55° W 18:37:21 10° NNW
Cosmos 1428 Rocket 4.4 18:27:07 10° S 18:33:21 74° E 18:39:39 10° N
CSL-04 Rocket 3.5 18:31:26 10° SSE 18:36:48 84° ENE 18:42:17 10° NNW
Helios 1A Rocket 3.4 18:33:56 10° S 18:37:59 60° WSW 18:42:07 10° NNW
USA 234 4.2 18:40:20 28° NNE 18:40:39 28° NNE 18:46:03 10° NNW
Cosmos 1092 Rocket 4.2 18:37:20 10° SSW 18:43:31 69° W 18:49:41 10° N
Iridium 4 Rocket 3.6 18:43:07 10° N 18:48:46 78° W 18:53:56 10° S
SJ 16-02 3.5 18:49:32 10° WSW 18:53:09 24° WNW 18:55:59 14° NNW
Cosmos 2344 4.4 18:46:57 10° NNW 18:56:21 56° NE 18:59:36 45° E
Cosmos 1937 Rocket 3.7 18:52:18 10° SSW 18:56:45 65° SSW 18:56:45 65° SSW
X-37B 4.0 19:05:09 10° WNW 19:05:31 12° WNW 19:05:31 12° WNW
ARGOS 4.3 19:10:41 10° SSW 19:15:40 40° W 19:20:43 10° NNW
Lacrosse 5 3.3 19:21:04 10° NW 19:24:15 35° WNW 19:24:15 35° WNW
CZ-2C R/B 3.8 19:27:19 36° NW 19:28:37 41° WNW 19:33:49 10° SW
NOSS 3-1 (C) 4.1 19:27:29 10° NW 19:34:39 79° NNW 19:34:39 79° NNW
USA 267 4.0 19:51:34 47° WNW 19:51:34 47° WNW 19:56:46 10° WSW
